Location: Amanico Ergina Village
(37.7824°N, 122.4366°W)
Time: 07:14:37
(UTC+00:00)

ADEOS - Pass Details

Date: 29 October 2020
Orbit: 793 x 794 km, 98.9° (Epoch: 03 December)

Event Time Altitude Azimuth Distance (km) Brightness Sun altitude
Rises 12:41:16 0° 13° (NNE) 3,302 6.9 -22.5°
Reaches altitude 10° 12:43:36 10° 14° (NNE) 2,368 6.2 -22.1°
Maximum altitude 12:48:50 88° 102° (ESE) 800 3.5 -21.0°
Drops below altitude 10° 12:54:03 10° 194° (SSW) 2,353 5.9 -20.0°
Sets 12:56:21 0° 195° (SSW) 3,278 6.6 -19.5°
